• In Latvia
  • List of Countries
  • For 7 days
  • Water Temperature
  • Satellite Maps
  • Weather Map
  • Weather Widgets
  • user-avatar
    Login

    Hourly Weather Bezvodnaya

    Today, 25 September, Tuesday

    Time Temperature Precipitation Wind Pressure Humidity
    00:00 +17°C° 0 mm 2 mps 726 mmHg 69%
    01:00 +17°C° 0 mm 2 mps 725 mmHg 67%
    02:00 +17°C° 0 mm 2 mps 725 mmHg 64%
    03:00 +17°C° 0 mm 2 mps 725 mmHg 61%
    04:00 +17°C° 0 mm 2 mps 725 mmHg 60%
    05:00 +17°C° 0 mm 2 mps 725 mmHg 59%
    06:00 +17°C° 0 mm 2 mps 724 mmHg 57%
    07:00 +20°C° 0 mm 1 mps 725 mmHg 53%
    08:00 +22°C° 0 mm 1 mps 725 mmHg 49%
    09:00 +25°C° 0 mm 1 mps 725 mmHg 45%
    10:00 +25°C° 0 mm 2 mps 726 mmHg 45%
    11:00 +26°C° 0 mm 3 mps 726 mmHg 45%
    12:00 +27°C° 0 mm 4 mps 726 mmHg 44%
    13:00 +25°C° 0 mm 4 mps 726 mmHg 52%
    14:00 +21°C° 0 mm 4 mps 727 mmHg 60%
    15:00 +19°C° 0 mm 4 mps 727 mmHg 68%
    16:00 +18°C° 0 mm 4 mps 727 mmHg 74%
    17:00 +16°C° 0 mm 3 mps 728 mmHg 80%
    18:00 +14°C° 0 mm 2 mps 728 mmHg 86%
    19:00 +14°C° 0 mm 2 mps 729 mmHg 86%
    20:00 +14°C° 0 mm 2 mps 729 mmHg 87%
    21:00 +13°C° 0 mm 2 mps 730 mmHg 87%
    22:00 +13°C° 0.3 mm 2 mps 730 mmHg 88%
    23:00 +12°C° 0.3 mm 2 mps 730 mmHg 90%

    Tomorrow, 26 September, Wednesday

    Time Temperature Precipitation Wind Pressure Humidity
    00:00 +12°C° 0.3 mm 2 mps 730 mmHg 91%
    01:00 +12°C° 0.2 mm 2 mps 731 mmHg 90%
    02:00 +10°C° 0.2 mm 2 mps 731 mmHg 90%
    03:00 +10°C° 0.2 mm 2 mps 731 mmHg 89%
    04:00 +10°C° 0.1 mm 2 mps 731 mmHg 89%
    05:00 +10°C° 0.1 mm 2 mps 731 mmHg 89%
    06:00 +9°C° 0.1 mm 2 mps 732 mmHg 89%
    07:00 +11°C° 0.1 mm 1 mps 732 mmHg 87%
    08:00 +11°C° 0.1 mm 1 mps 732 mmHg 84%
    09:00 +12°C° 0.1 mm 1 mps 733 mmHg 82%
    10:00 +13°C° 0 mm 2 mps 733 mmHg 75%
    11:00 +14°C° 0 mm 2 mps 733 mmHg 69%
    12:00 +15°C° 0 mm 2 mps 733 mmHg 63%
    13:00 +15°C° 0.1 mm 2 mps 733 mmHg 61%
    14:00 +15°C° 0.1 mm 2 mps 733 mmHg 60%
    15:00 +15°C° 0.1 mm 2 mps 733 mmHg 58%
    16:00 +14°C° 0.2 mm 2 mps 733 mmHg 61%
    17:00 +14°C° 0.2 mm 2 mps 733 mmHg 64%
    18:00 +13°C° 0.2 mm 2 mps 733 mmHg 67%
    19:00 +12°C° 0.1 mm 2 mps 733 mmHg 68%
    20:00 +12°C° 0.1 mm 2 mps 733 mmHg 69%
    21:00 +12°C° 0.1 mm 2 mps 734 mmHg 70%
    22:00 +10°C° 0.1 mm 2 mps 734 mmHg 71%
    23:00 +10°C° 0.1 mm 2 mps 734 mmHg 73%

    Day after tomorrow, 27 September, Thursday

    Time Temperature Precipitation Wind Pressure Humidity
    00:00 +10°C° 0.1 mm 2 mps 734 mmHg 75%
    01:00 +9°C° 0.1 mm 2 mps 734 mmHg 77%
    02:00 +9°C° 0.1 mm 2 mps 734 mmHg 78%
    03:00 +9°C° 0.1 mm 1 mps 734 mmHg 80%
    04:00 +9°C° 0 mm 1 mps 734 mmHg 82%
    05:00 +8°C° 0 mm 1 mps 734 mmHg 84%
    06:00 +8°C° 0 mm 1 mps 734 mmHg 86%
    07:00 +10°C° 0 mm 1 mps 734 mmHg 80%
    08:00 +12°C° 0 mm 2 mps 734 mmHg 73%
    09:00 +14°C° 0 mm 2 mps 734 mmHg 66%
    10:00 +15°C° 0 mm 2 mps 734 mmHg 61%
    11:00 +17°C° 0 mm 2 mps 734 mmHg 56%
    12:00 +18°C° 0 mm 2 mps 734 mmHg 51%
    13:00 +19°C° 0 mm 2 mps 734 mmHg 50%
    14:00 +19°C° 0 mm 2 mps 733 mmHg 50%
    15:00 +20°C° 0 mm 1 mps 733 mmHg 49%
    16:00 +19°C° 0 mm 1 mps 733 mmHg 55%
    17:00 +16°C° 0 mm 1 mps 733 mmHg 60%
    18:00 +15°C° 0 mm 1 mps 733 mmHg 66%
    19:00 +14°C° 0 mm 1 mps 733 mmHg 69%
    20:00 +13°C° 0 mm 1 mps 733 mmHg 71%
    21:00 +12°C° 0 mm 1 mps 733 mmHg 74%
    22:00 +11°C° 0 mm 1 mps 733 mmHg 74%
    23:00 +11°C° 0 mm 1 mps 733 mmHg 75%

    28 September, Friday

    Time Temperature Precipitation Wind Pressure Humidity
    00:00 +10°C° 0 mm 1 mps 733 mmHg 76%
    01:00 +10°C° 0 mm 1 mps 732 mmHg 76%
    02:00 +10°C° 0 mm 1 mps 732 mmHg 76%
    03:00 +10°C° 0 mm 1 mps 732 mmHg 76%
    04:00 +10°C° 0 mm 1 mps 732 mmHg 76%
    05:00 +10°C° 0 mm 1 mps 732 mmHg 76%
    06:00 +9°C° 0 mm 1 mps 732 mmHg 76%
    07:00 +12°C° 0 mm 1 mps 732 mmHg 69%
    08:00 +15°C° 0 mm 1 mps 732 mmHg 62%
    09:00 +19°C° 0 mm 1 mps 732 mmHg 55%
    10:00 +20°C° 0 mm 1 mps 732 mmHg 51%
    11:00 +22°C° 0 mm 1 mps 731 mmHg 47%
    12:00 +24°C° 0 mm 2 mps 731 mmHg 43%
    13:00 +25°C° 0 mm 2 mps 731 mmHg 43%
    14:00 +25°C° 0 mm 2 mps 730 mmHg 43%
    15:00 +25°C° 0 mm 2 mps 730 mmHg 43%
    16:00 +23°C° 0 mm 2 mps 729 mmHg 51%
    17:00 +20°C° 0 mm 2 mps 729 mmHg 58%
    18:00 +20°C° 0 mm 1 mps 728 mmHg 66%
    19:00 +18°C° 0 mm 1 mps 728 mmHg 68%
    20:00 +16°C° 0 mm 1 mps 728 mmHg 70%
    21:00 +15°C° 0 mm 2 mps 728 mmHg 73%
    22:00 +15°C° 0 mm 1 mps 728 mmHg 71%
    23:00 +15°C° 0 mm 1 mps 727 mmHg 70%

    29 September, Saturday

    Time Temperature Precipitation Wind Pressure Humidity
    00:00 +15°C° 0 mm 1 mps 727 mmHg 69%
    01:00 +15°C° 0 mm 1 mps 727 mmHg 68%
    02:00 +15°C° 0 mm 1 mps 727 mmHg 67%
    03:00 +15°C° 0 mm 1 mps 727 mmHg 65%
    04:00 +15°C° 0 mm 1 mps 726 mmHg 65%
    05:00 +14°C° 0 mm 1 mps 726 mmHg 65%
    06:00 +14°C° 0 mm 1 mps 726 mmHg 64%
    07:00 +18°C° 0 mm 1 mps 726 mmHg 60%
    08:00 +20°C° 0 mm 1 mps 726 mmHg 56%
    09:00 +22°C° 0 mm 1 mps 726 mmHg 52%
    10:00 +24°C° 0 mm 1 mps 726 mmHg 47%
    11:00 +26°C° 0 mm 1 mps 726 mmHg 42%
    12:00 +28°C° 0 mm 1 mps 726 mmHg 37%
    13:00 +29°C° 0 mm 2 mps 726 mmHg 37%
    14:00 +29°C° 0 mm 2 mps 725 mmHg 36%
    15:00 +29°C° 0 mm 2 mps 725 mmHg 36%
    16:00 +27°C° 0 mm 1 mps 725 mmHg 44%
    17:00 +25°C° 0 mm 1 mps 724 mmHg 52%
    18:00 +22°C° 0 mm 1 mps 724 mmHg 61%
    19:00 +21°C° 0 mm 1 mps 724 mmHg 63%
    20:00 +20°C° 0 mm 1 mps 724 mmHg 65%
    21:00 +18°C° 0 mm 2 mps 724 mmHg 67%
    22:00 +18°C° 0 mm 2 mps 724 mmHg 66%
    23:00 +18°C° 0 mm 2 mps 724 mmHg 65%

    30 September, Sunday

    Time Temperature Precipitation Wind Pressure Humidity
    00:00 +17°C° 0 mm 2 mps 724 mmHg 64%
    01:00 +17°C° 0.1 mm 2 mps 724 mmHg 65%
    02:00 +18°C° 0.1 mm 1 mps 724 mmHg 66%
    03:00 +16°C° 0.1 mm 1 mps 724 mmHg 67%
    04:00 +16°C° 0.1 mm 1 mps 724 mmHg 70%
    05:00 +16°C° 0.1 mm 1 mps 724 mmHg 72%
    06:00 +16°C° 0.1 mm 1 mps 725 mmHg 74%
    07:00 +18°C° 0.5 mm 1 mps 725 mmHg 73%
    08:00 +20°C° 0.5 mm 1 mps 725 mmHg 72%
    09:00 +21°C° 0.5 mm 1 mps 726 mmHg 71%
    10:00 +21°C° 0.5 mm 2 mps 726 mmHg 68%
    11:00 +23°C° 0.5 mm 2 mps 726 mmHg 65%
    12:00 +24°C° 0.5 mm 3 mps 726 mmHg 63%
    13:00 +23°C° 1 mm 2 mps 726 mmHg 67%
    14:00 +21°C° 1 mm 2 mps 726 mmHg 71%
    15:00 +20°C° 1 mm 2 mps 726 mmHg 75%
    16:00 +19°C° 0.7 mm 2 mps 726 mmHg 79%
    17:00 +19°C° 0.7 mm 1 mps 726 mmHg 82%
    18:00 +18°C° 0.7 mm 1 mps 726 mmHg 86%
    19:00 +18°C° 0.4 mm 1 mps 727 mmHg 88%
    20:00 +16°C° 0.4 mm 1 mps 727 mmHg 90%
    21:00 +15°C° 0.4 mm 2 mps 727 mmHg 93%
    22:00 +15°C° 0 mm 2 mps 727 mmHg 92%
    23:00 +15°C° 0 mm 2 mps 727 mmHg 92%
    Show more